国际通讯卫星 804星 (INTELSAT 804 (IS-804))

导读 | 豆包AI

INTELSAT 804(国际通信卫星804)由洛克希德·马丁研发,于1997年12月21日发射,归属国际通信卫星组织(ITSO)。它运行于地球静止轨道,质量达3245kg,设计寿命14-17年,属于国际通信卫星系列。作为商用通信卫星,它搭载多波段转发器,为全球提供语音、数据、电视传输等电信服务,有力推动了跨区域通信网络互联互通。

基本信息
目录编号:
25110
目录名称:
INTELSAT 804
国际标识:
1997-083A
轨道中心:
EARTH
卫星名称:
国际通讯卫星 804星
卫星全名:
国际通讯卫星 804星 (INTELSAT 804 (IS-804))
卫星状态:
在轨 (已飞行10310 天)
发射日期:
1997-12-21 UTC
国别 :
(ITSO)
星等 :
--
轨道信息
数据来源 国际轨道数据 AOE轨道数据
星历时间 2026-03-13T10:51:52+0800
22小时前
查看轨道信息
2026-03-10T23:00:00+0800
3天前
查看轨道信息
半长轴 42167.812km 42167.756km
偏心率 0.0009198 0.0009023
轨道倾角 13.055° 13.052°
近地点辐角 11.040° 10.821°
升交点赤经 18.343° 18.360°
平近点角 351.849° 171.735°
近地点 35750.889km 35751.571km
远地点 35828.461km 35827.667km
周期 1436.254分钟 1436.251分钟
每日圈数 1.002608 1.00261
详细信息
卫星平台:
AS-7000
平衡模式:
三轴稳定
覆盖范围:
全球
运营商:
国际卫星通信公司
运营商所在国:
美国
制造商(研发单位):
洛克希德·马丁公司
制造商所在国:
美国
使用方式:
暂无
卫星简介
从1965年4月至1984年3月,国际通信卫星组织发射了5代、6种不同性能的卫星共计35颗,除6颗卫星因运载火箭和远地点发动机故障而发射失败外,其余29颗卫星均被送到了预定的静止轨道位置。1984年8月前后,国际通信卫星组织利用部署在大西洋、太平洋、印度洋上空的15颗国际通信卫星,为遍布世界各地170多个国家或地区提供电话、电传、电报、电视和数据传输等电信业务;该卫星已退役。
2D轨道图
3D轨道图
轨道高度分析图
轨道倾角分析图
轨道综合分析图
查看轨道综合分析图